User: anonymous   Login
Location: Sunrise Point
(46.9200°N, 121.5900°W)
Time: 22:47:06
(UTC-07:00)
Language:

Cosmos 2058 - Orbit

View from above orbital plane
View from above orbital plane
View from above satellite
View from above satellite

Ground track
Ground track

The orbit data is extracted from the following two-line orbital elements,

1 20465U 90010A   16178.17423188  .00000293  00000-0  22882-4 0  9994
2 20465  82.4896 230.0722 0017064  57.3482 302.9384 14.97221118432069
Epoch (UTC): 26 June 2016 04:10:53
Eccentricity: 0.0017064
inclination: 82.4896°
perigee height: 563 km
apogee height: 587 km
right ascension of ascending node: 230.0722°
argument of perigee: 57.3482°
revolutions per day: 14.97221118
mean anomaly at epoch: 302.9384°
orbit number at epoch: 43206

The dashed part of the orbit path shows where the satellite is in the earth's shadow,  

DLR